Skip to main content Skip to accessibility
This website is not compatible with your web browser. You should install a newer browser. If you live in Jersey and need help upgrading call the States of Jersey web team on 440099.
Homegov.je

L'înformâtion et les sèrvices publyis pouor I'Île dé Jèrri

  • Choose the service you want to log in to:

  • gov.je

    Update your notification preferences

  • one.gov.je

    Access government and parish services

  • CAESAR

    Clear goods through customs or claim relief

  • Talentlink

    View or update your States of Jersey job application

Local METARs

METAR EGJJ 191750Z 29005KT 250V320 9999 FEW010 19/16 Q1025

METAR EGJB 191750Z 29005KT 9999 FEW007 18/15 Q1025

METAR EGJA 191720Z 24007KT 0500 R26/0750 FG BKN000 15/// Q1025

METAR LFRD 191730Z AUTO 03007KT CAVOK 20/15 Q1024 NOSIG

METAR LFRC 191730Z AUTO 22006KT 190V250 9999 OVC013 18/14 Q1025 BECMG BKN020

 

 

 

​Times are in Greenwich Mean Time (GMT) and not British Summer Time (BST). They will be one hour different during BST.

Back to top
rating button